Track STARLINK-31382 now! 10-day predictions STARLINK-31382 is classified as:
1 59184U 24045G 24325.20848793 .00000034 00000-0 80935-5 0 9996 2 59184 43.0035 261.8597 0002442 262.3204 97.7375 15.40691530 40481